sat.trackr.live / text

‹ back to catalog

STARLINK-36914

NORAD 67942 · 2026-037L

PAYLOAD ACTIVE UNKNOWN

§ Identity

Operator
Country
US
Launch date
2026-02-24
Launch site
AFETR
Launch vehicle
Mass (kg)
RCS (m²)

Purposes: comms

External: N2YO · Heavens-Above · Gunter

§ Orbital elements

Epoch: 2026-05-25T05:07:35.217120Z

Period
94.27 min
Inclination
42.9974°
Eccentricity
0.0000977
Mean motion
15.27595723 rev/d
Perigee alt
482.3 km
Apogee alt
483.7 km
Semi-major
6,861.1 km
B*
5.2538e-4
RAAN
118.5788°
Arg perigee
273.8811°
Mean anomaly
86.1929°
Rev number
1,504

§ Raw data

STARLINK-369141 67942U 26037L   26145.21360205  .00014230  00000+0  52538-3 0  99982 67942  42.9974 118.5788 0000977 273.8811  86.1929 15.27595723 15047

JSON: /api/v1/satellites/67942 · /tle

For live sub-satellite position, see the globe view (requires WebGL).

§ Visibility from observer

Set your observer location to see the next 7 days of passes ≥ 10°. The values pass through the URL so the page stays shareable.

No JS? Fill the form by hand. The geolocation button needs JavaScript.